EW5562 Agios Dimitrios Viotias GR current weather conditions

sailwx.info

Wind from 307 at 0 knots gusting 2

Air temperature 21.1° C
Dewpoint 12.8° C

Last reported at 2020-Jul-11 21:02 UTC.
Time now 2020-Jul-11 21:20 UTC

Location: N 38°27' E 022°60'.
View on Google Maps.

See reports from other nearby stations

  
Tides and Currents Weather Stations Pressure Air Temp Water Temp Dewpoint Dewpoint Depression Visibility Wind Speed Wind Dir Waves Ship Positions
date/time (UTC)wind fromknots sea level pressurealtimeterstation pressurevisibilityair tempwater tempwave heightnotes
2020-Jul-11 21:02 307 0 gusting 2 21.1
2020-Jul-11 20:52 250 1 gusting 2 21.7
2020-Jul-11 20:42 354 21.7
2020-Jul-11 20:32 355 1 gusting 2 21.7
2020-Jul-11 20:22 358 0 gusting 1 21.7
2020-Jul-11 20:12 358 21.7
2020-Jul-11 20:02 358 21.7
2020-Jul-11 19:52 358 1 gusting 2 22.2
2020-Jul-11 19:42 276 0 gusting 2 22.2
2020-Jul-11 19:32 266 0 gusting 3 22.2
2020-Jul-11 19:22 224 0 gusting 4 22.2
2020-Jul-11 19:12 204 3 gusting 4 22.8
2020-Jul-11 19:02 185 1 gusting 3 23.9
2020-Jul-11 18:52 089 25.0
2020-Jul-11 18:42 087 1 gusting 3 25.0
2020-Jul-11 18:32 094 0 gusting 2 25.6
2020-Jul-11 18:22 149 25.0
2020-Jul-11 18:12 148 1 gusting 2 25.0
2020-Jul-11 18:02 155 0 gusting 2 25.0
2020-Jul-11 17:52 148 1 gusting 3 26.1
2020-Jul-11 17:42 100 0 gusting 3 26.1
2020-Jul-11 17:32 039 0 gusting 6 26.7
2020-Jul-11 17:22 031 3 gusting 7 26.7
2020-Jul-11 17:12 013 5 gusting 8 27.2
2020-Jul-11 17:02 039 6 gusting 8 27.8
2020-Jul-11 16:52 024 4 gusting 9 27.8
2020-Jul-11 16:42 055 6 gusting 10 28.3
2020-Jul-11 16:32 028 6 gusting 11 28.3
2020-Jul-11 16:22 072 6 gusting 11 28.9
2020-Jul-11 16:12 041 6 gusting 11 28.9
2020-Jul-11 16:02 056 7 gusting 12 28.9
2020-Jul-11 15:52 037 8 gusting 13 29.4
2020-Jul-11 15:42 29.4
2020-Jul-11 15:32 028 9 gusting 13 29.4
2020-Jul-11 15:22 023 10 gusting 13 29.4
2020-Jul-11 15:12 035 11 gusting 14 29.4
2020-Jul-11 15:02 085 7 gusting 14 30.0
2020-Jul-11 14:52 048 11 gusting 15 30.0
2020-Jul-11 14:42 027 12 gusting 14 30.0
2020-Jul-11 14:32 031 9 gusting 14 30.6
2020-Jul-11 14:22 031 9 gusting 14 30.6
2020-Jul-11 14:02 044 8 gusting 15 30.6
2020-Jul-11 13:51 031 7 gusting 15 30.6
2020-Jul-11 13:42 042 7 gusting 16 30.6
2020-Jul-11 13:32 032 8 gusting 15 30.6
2020-Jul-11 13:22 035 7 gusting 13 30.6
2020-Jul-11 13:12 047 10 gusting 15 30.6
2020-Jul-11 13:01 017 10 gusting 17 30.6
2020-Jul-11 12:51 30.6
2020-Jul-11 12:42 021 10 gusting 16 30.6
2020-Jul-11 12:32 025 11 gusting 17 30.6
2020-Jul-11 12:22 034 11 gusting 16 30.6
2020-Jul-11 12:11 020 10 gusting 16 30.0
2020-Jul-11 12:02 047 9 gusting 16 30.0
2020-Jul-11 11:51 017 8 gusting 13 30.0
2020-Jul-11 11:41 30.0
2020-Jul-11 11:32 030 12 gusting 17 30.0
2020-Jul-11 11:22 30.0
2020-Jul-11 11:11 035 10 gusting 16 29.4
2020-Jul-11 11:02 031 10 gusting 18 29.4
2020-Jul-11 10:51 042 11 gusting 16 29.4
2020-Jul-11 10:41 020 10 gusting 15 29.4
2020-Jul-11 10:31 28.9
2020-Jul-11 10:21 044 9 gusting 15 28.9
2020-Jul-11 10:11 034 11 gusting 15 29.4
2020-Jul-11 10:01 059 9 gusting 17 28.9
2020-Jul-11 09:51 020 5 gusting 14 28.3
2020-Jul-11 09:42 020 6 gusting 13 28.9
2020-Jul-11 09:32 041 7 gusting 14 28.3
2020-Jul-11 09:22 035 5 gusting 13 28.3
2020-Jul-11 09:11 024 7 gusting 17 28.3
2020-Jul-11 09:01 024 13 gusting 17 28.3
2020-Jul-11 08:52 021 10 gusting 15 27.8
2020-Jul-11 08:41 032 9 gusting 15 27.8
2020-Jul-11 08:33 011 9 gusting 15 27.8
2020-Jul-11 08:21 355 7 gusting 13 27.8
2020-Jul-11 08:11 004 8 gusting 13 27.8
2020-Jul-11 08:01 013 9 gusting 13 27.2
2020-Jul-11 07:51 042 10 gusting 15 27.2
2020-Jul-11 07:41 351 9 gusting 13 27.2
2020-Jul-11 07:31 037 6 gusting 13 27.2
2020-Jul-11 07:21 354 5 gusting 9 26.7
2020-Jul-11 07:11 017 2 gusting 5 26.1
2020-Jul-11 07:01 182 1 gusting 4 25.6
2020-Jul-11 06:52 142 0 gusting 6 25.6
2020-Jul-11 06:41 180 0 gusting 2 25.6
2020-Jul-11 06:31 124 0 gusting 4 25.0
2020-Jul-11 06:21 020 2 gusting 6 24.4
2020-Jul-11 06:11 016 4 gusting 6 24.4
2020-Jul-11 06:01 030 2 gusting 4 24.4
2020-Jul-11 05:51 24.4
2020-Jul-11 05:41 357 3 gusting 4 23.9
2020-Jul-11 05:31 341 1 gusting 4 23.9
2020-Jul-11 05:21 300 2 gusting 3 23.3
2020-Jul-11 05:11 295 1 gusting 2 22.2
2020-Jul-11 05:01 281 21.7
2020-Jul-11 04:51 281 0 gusting 1 20.6
2020-Jul-11 04:41 281 20.6
2020-Jul-11 04:31 283 1 gusting 3 20.6
2020-Jul-11 04:21 327 3 gusting 5 20.6
2020-Jul-11 04:11 289 2 gusting 5 20.0
2020-Jul-11 04:01 313 1 gusting 5 19.4
2020-Jul-11 03:51 338 3 gusting 7 19.4
2020-Jul-11 03:41 295 4 gusting 6 19.4
2020-Jul-11 03:31 331 2 gusting 7 19.4
2020-Jul-11 03:21 312 4 gusting 7 19.4
2020-Jul-11 03:11 329 3 gusting 5 19.4
2020-Jul-11 03:01 329 4 gusting 7 19.4
2020-Jul-11 02:51 331 5 gusting 8 19.4
2020-Jul-11 02:42 314 4 gusting 7 19.4
2020-Jul-11 02:31 309 5 gusting 9 19.4
2020-Jul-11 02:21 331 5 gusting 9 19.4
2020-Jul-11 02:11 321 4 gusting 7 19.4
2020-Jul-11 02:01 299 6 gusting 8 19.4
2020-Jul-11 01:51 310 4 gusting 7 19.4
2020-Jul-11 01:41 306 5 gusting 6 19.4
2020-Jul-11 01:31 333 1 gusting 3 19.4
2020-Jul-11 01:21 317 3 gusting 6 19.4
2020-Jul-11 01:11 337 4 gusting 6 20.0
2020-Jul-11 01:01 309 2 gusting 6 20.0
2020-Jul-11 00:51 330 2 gusting 5 20.0
2020-Jul-11 00:41 302 4 gusting 6 20.0
2020-Jul-11 00:31 306 5 gusting 7 20.0
2020-Jul-11 00:21 324 4 gusting 7 20.0
2020-Jul-11 00:11 313 5 gusting 7 19.4
2020-Jul-11 00:01 296 4 gusting 6 19.4
2020-Jul-10 23:51 292 3 gusting 5 19.4
2020-Jul-10 23:41 265 2 gusting 6 20.6
2020-Jul-10 23:32 309 4 gusting 6 20.6
2020-Jul-10 23:21 307 3 gusting 6 20.6
2020-Jul-10 23:11 310 3 gusting 6 20.6
2020-Jul-10 23:01 334 3 gusting 6 20.0
2020-Jul-10 22:51 306 3 gusting 6 21.1
2020-Jul-10 22:41 289 4 gusting 7 21.1
2020-Jul-10 22:31 295 5 gusting 7 21.1
2020-Jul-10 22:21 312 5 gusting 6 21.1
2020-Jul-10 22:11 298 4 gusting 7 21.1
2020-Jul-10 22:01 313 3 gusting 6 20.6
2020-Jul-10 21:51 331 3 gusting 4 20.0
2020-Jul-10 21:41 337 3 gusting 4 20.6
2020-Jul-10 21:31 309 2 gusting 5 20.6
2020-Jul-10 21:21 289 3 gusting 5 20.6
2020-Jul-10 21:11 212 2 gusting 5 20.6
2020-Jul-10 21:01 303 3 gusting 9 21.7
2020-Jul-10 20:51 298 4 gusting 9 21.1
2020-Jul-10 20:41 258 2 gusting 4 21.7
2020-Jul-10 20:31 276 4 gusting 7 21.7
2020-Jul-10 20:21 254 3 gusting 8 22.2
2020-Jul-10 20:11 312 4 gusting 9 22.2
2020-Jul-10 20:01 274 5 gusting 9 22.2
2020-Jul-10 19:51 244 6 gusting 8 22.2
2020-Jul-10 19:41 298 5 gusting 9 22.2
2020-Jul-10 19:31 323 5 gusting 8 22.2
2020-Jul-10 19:21 264 4 gusting 6 22.2
2020-Jul-10 19:11 303 3 gusting 6 22.2
2020-Jul-10 19:02 241 2 gusting 7 22.2
2020-Jul-10 18:51 231 4 gusting 6 22.2
2020-Jul-10 18:41 220 1 gusting 4 22.2
2020-Jul-10 18:31 213 4 gusting 5 23.3
2020-Jul-10 18:21 262 1 gusting 2 24.4
2020-Jul-10 18:11 262 1 gusting 2 24.4
2020-Jul-10 18:01 262 1 gusting 3 24.4
2020-Jul-10 17:51 006 1 gusting 3 25.6
2020-Jul-10 17:41 007 2 gusting 3 25.6
2020-Jul-10 17:31 004 3 gusting 5 25.6
2020-Jul-10 17:21 26.1
2020-Jul-10 17:11 027 4 gusting 7 26.1
2020-Jul-10 17:01 023 4 gusting 6 26.7
2020-Jul-10 16:51 017 3 gusting 10 26.7
2020-Jul-10 16:41 26.7
2020-Jul-10 16:31 025 9 gusting 12 27.2
2020-Jul-10 16:21 045 6 gusting 13 27.2
2020-Jul-10 16:11 027 8 gusting 13 27.2
2020-Jul-10 16:01 001 9 gusting 13 27.8
2020-Jul-10 15:51 27.8
2020-Jul-10 15:41 020 9 gusting 13 27.8
2020-Jul-10 15:31 006 10 gusting 15 27.8
2020-Jul-10 15:21 018 10 gusting 13 28.3
2020-Jul-10 15:11 007 11 gusting 15 28.3
2020-Jul-10 15:01 021 11 gusting 15 28.3
2020-Jul-10 14:51 031 12 gusting 16 28.3
2020-Jul-10 14:41 031 12 gusting 18 28.3
2020-Jul-10 14:31 034 13 gusting 18 28.9
2020-Jul-10 14:21 28.9
2020-Jul-10 14:11 041 9 gusting 14 29.4
2020-Jul-10 14:01 008 11 gusting 15 28.9
2020-Jul-10 13:51 024 11 gusting 18 28.9
2020-Jul-10 13:41 28.9
2020-Jul-10 13:31 049 13 gusting 17 28.9
2020-Jul-10 13:21 044 8 gusting 19 28.9
2020-Jul-10 13:11 016 9 gusting 17 28.9
2020-Jul-10 13:01 024 11 gusting 18 28.9
2020-Jul-10 12:51 023 10 gusting 17 28.9
2020-Jul-10 12:41 007 11 gusting 15 29.4
2020-Jul-10 12:31 017 11 gusting 17 29.4
2020-Jul-10 12:21 030 9 gusting 14 28.9
2020-Jul-10 12:11 018 12 gusting 15 29.4
2020-Jul-10 12:01 032 13 gusting 18 29.4
2020-Jul-10 11:51 001 11 gusting 16 28.9
2020-Jul-10 11:41 017 12 gusting 17 28.3
2020-Jul-10 11:31 004 11 gusting 16 28.9
2020-Jul-10 11:21 020 11 gusting 19 28.9
2020-Jul-10 11:11 011 11 gusting 18 28.3
2020-Jul-10 11:01 28.3
2020-Jul-10 10:51 018 10 gusting 18 28.3
2020-Jul-10 10:41 007 10 gusting 17 28.3
2020-Jul-10 10:31 037 8 gusting 18 28.3
2020-Jul-10 10:21 007 10 gusting 19 28.3
2020-Jul-10 10:11 032 9 gusting 16 28.3
2020-Jul-10 10:01 28.3
2020-Jul-10 09:51 358 8 gusting 17 28.3
2020-Jul-10 09:41 011 6 gusting 19 27.8
2020-Jul-10 09:31 054 8 gusting 14 27.8
2020-Jul-10 09:21 319 10 gusting 15 27.8
2020-Jul-10 09:11 025 5 gusting 14 27.8
2020-Jul-10 09:01 27.8
2020-Jul-10 08:51 011 7 gusting 17 27.2
2020-Jul-10 08:41 028 13 gusting 17 27.2
2020-Jul-10 08:31 007 9 gusting 14 27.2
2020-Jul-10 08:21 001 11 gusting 14 27.2
2020-Jul-10 08:11 031 11 gusting 14 27.2
2020-Jul-10 08:01 008 8 gusting 17 26.7
2020-Jul-10 07:51 020 6 gusting 13 26.7
2020-Jul-10 07:41 26.7
2020-Jul-10 07:31 001 11 gusting 19 26.7
2020-Jul-10 07:21 340 10 gusting 16 26.7
2020-Jul-10 07:11 348 9 gusting 16 26.7
2020-Jul-10 07:01 306 7 gusting 13 26.1
2020-Jul-10 06:51 343 6 gusting 15 26.1
2020-Jul-10 06:41 25.6
2020-Jul-10 06:31 326 11 gusting 15 25.6
2020-Jul-10 06:21 25.6
2020-Jul-10 06:11 337 6 gusting 12 25.0
2020-Jul-10 06:01 350 10 gusting 13 25.0
2020-Jul-10 05:51 25.0
2020-Jul-10 05:41 344 6 gusting 13 24.4
2020-Jul-10 05:31 336 6 gusting 12 24.4
2020-Jul-10 05:21 319 5 gusting 12 24.4
2020-Jul-10 05:11 340 6 gusting 9 23.9
2020-Jul-10 05:01 295 5 gusting 9 23.3
2020-Jul-10 04:51 310 3 gusting 8 22.8
2020-Jul-10 04:41 300 6 gusting 8 22.2
2020-Jul-10 04:21 300 5 gusting 9 21.1
2020-Jul-10 04:11 296 5 gusting 8 20.0
2020-Jul-10 04:01 302 5 gusting 7 20.0
2020-Jul-10 03:51 305 5 gusting 8 19.4
2020-Jul-10 03:41 289 5 gusting 8 19.4
2020-Jul-10 03:31 307 6 gusting 8 19.4
2020-Jul-10 03:21 292 4 gusting 9 19.4
2020-Jul-10 03:11 305 4 gusting 7 19.4
2020-Jul-10 03:01 314 6 gusting 9 19.4
2020-Jul-10 02:51 300 6 gusting 8 19.4
2020-Jul-10 02:41 319 6 gusting 9 20.0
2020-Jul-10 02:31 309 5 gusting 9 20.0
2020-Jul-10 02:21 310 5 gusting 8 20.0
2020-Jul-10 02:11 293 5 gusting 9 20.0
2020-Jul-10 02:01 289 4 gusting 7 20.0
2020-Jul-10 01:51 293 4 gusting 7 20.0
2020-Jul-10 01:41 306 4 gusting 6 20.0
2020-Jul-10 01:31 292 5 gusting 7 20.0
2020-Jul-10 01:21 292 5 gusting 9 20.0
2020-Jul-10 01:11 306 5 gusting 8 20.0
2020-Jul-10 01:01 300 5 gusting 8 20.0
2020-Jul-10 00:51 299 5 gusting 8 20.0
2020-Jul-10 00:41 290 5 gusting 7 20.0
2020-Jul-10 00:31 272 5 gusting 7 20.0
2020-Jul-10 00:21 300 4 gusting 7 20.0
2020-Jul-10 00:11 317 3 gusting 7 20.0
2020-Jul-10 00:01 293 3 gusting 6 19.4
2020-Jul-09 23:51 307 1 gusting 5 20.0
2020-Jul-09 23:41 281 4 gusting 6 19.4
2020-Jul-09 23:31 316 1 gusting 4 19.4
2020-Jul-09 23:21 292 2 gusting 4 20.0
2020-Jul-09 23:11 278 1 gusting 4 20.0
2020-Jul-09 23:01 282 2 gusting 5 20.0
2020-Jul-09 22:51 281 3 gusting 6 20.6
2020-Jul-09 22:41 271 3 gusting 7 20.6
2020-Jul-09 22:31 283 4 gusting 5 20.6
2020-Jul-09 22:21 293 5 gusting 6 20.6
2020-Jul-09 22:11 295 3 gusting 5 20.0
2020-Jul-09 22:01 333 3 gusting 7 20.0
2020-Jul-09 21:51 289 4 gusting 6 20.0
2020-Jul-09 21:41 305 3 gusting 4 20.0
2020-Jul-09 21:31 312 3 gusting 6 20.6
2020-Jul-09 21:21 288 2 gusting 6 20.6
2020-Jul-09 21:11 296 4 gusting 6 20.6
2020-Jul-09 21:01 296 3 gusting 8 21.1